Погода в Ненашеве

Россия / Тульская область     54°34′42″N   37°27′37″E
темп.,
°C
ветер,
м/с
пор.,
м/с
влажн.,
%
обл.,
%
осадки,
мм/ч
давл.,
гПа
погр.,
м
11 мая, вт
вт1100:00+6св513797 0.0 1026284
03:00+5ссв512885 0.0 1025251
06:00+6ссв614865 0.0 1025353
09:00+11св711765 0.0 1025471
12:00+16св810685 0.0 1024778
15:00+18всв7106622 0.0 10231230
18:00+16в5982100 1.1 1024558
21:00+11юв3992100 1.6 1026377
12 мая, ср
ср1200:00+8юв36910 0.0 102792
03:00+6юв229035 0.0 102721
06:00+7юв2387100 0.0 102775
09:00+9св2285100 0.0 102694
12:00+8ссз3494100 3.2 1024190
15:00+13в81591100 6.3 1017978
18:00+8ююв489326 5.4 1019388
21:00+6вюв499522 5.4 1021255
13 мая, чт
чт1300:00+6в511976 0.0 1020219
03:00+7вюв61492100 0.0 1020365
06:00+8юв51294100 0.0 1020354
09:00+12ююв4681100 0.0 1019514
12:00+15юв3466100 0.0 10181056
15:00+17юв346078 0.1 10171416
18:00+15ююв357757 0.7 1016677
21:00+11юв359084 0.9 101772
14 мая, пт
пт1400:00+10юв379412 0.0 1017119
03:00+10юв3996100 0.0 1017164
06:00+12юв41093100 0.0 1017273
09:00+14юв5128695 0.0 1017426
12:00+19юв7969100 0.0 1015944
15:00+20юв61076100 1.5 1014953
18:00+19ююв61279100 3.3 1012621
21:00+16ююв41090100 5.1 1012199
15 мая, сб
сб1500:00+15ю3491100 0.0 101253
03:00+14ююз3695100 0.6 1012114
06:00+15ююв229297 2.0 101130
09:00+18ююв2483100 2.2 1011303
12:00+17юв129396 5.7 100934
15:00+21юз57736 8.1 10091085
18:00+20ююз477749 0.8 1008474
21:00+16ююз338657 2.4 100840